Warning: Javascript must be enabled to use all the features on this page!


Page Loading - Please Wait...

Click to hideNews Bulletins
  • Have your voice heard. Have a few minutes? We're surveying users about their experience with Water Data for the Nation (WDFN). Please take a few minutes to complete our online survey.
  • See the Water Data for the Nation Blog for the latest news and updates.

Peak Streamflow for the Nation

USGS 10344500 LITTLE TRUCKEE R BL BOCA DAM NR TRUCKEE CA

Nevada County, California
Hydrologic Unit Code 16050102
Latitude  39°23'13", Longitude 120°05'40" NAD27
Drainage area 173  square miles
Gage datum 5,500.00 feet above NGVD29
Output formats
Table
Graph
Tab-separated file
peakfq (watstore) format
Reselect output format
Water
Year
Date Gage
Height
(feet)
Stream-
flow
(cfs)
1890 1890-05-06   2,8706
1911 1911-04-26   2,2606
1912 1912-06-06   6596
1913 1913-05-18   6886
1914 1914-04-15   2,3606
1915 1915-05-12   1,6006
1940 1940-05-13   1,3306
1941 1941-05-27   6806
1942 1942-04-16   1,1006
1943 1943-04-21   8346
1944 1944-08-18   4576
1945 1945-05-15   1,4006
1946 1946-04-20   7996
1947 1947-01-17   4356
1948 1948-06-10   5956
1949 1949-05-06   3756
1950 1950-04-28   8506
1951 1950-11-20   5,0006
1952 1952-05-04   2,5206
1953 1953-05-08   7506
1954 1954-05-10   4506
1955 1955-06-03   3336
1956 1955-12-24   8,8006
1957 1957-06-02   5876
1958 1958-05-14 5.15 1,5906
1959 1959-07-08 3.29 4606
1960 1960-07-22 3.43 5266
1961 1961-08-03 2.73 3066
1962 1962-05-05 4.17 8776
1963 1963-02-02 6.16 2,5906
1964 1964-05-04 3.22 4376
1965 1964-12-25 5.59 1,9906
1966 1966-08-03 3.12 4116
1967 1967-05-24 5.83 2,0506
1968 1968-02-25 3.70 5656
1969 1969-05-13 5.46 1,7206
1970 1970-06-17 3.90 7206
1971 1971-09-13 3.89 7066
1972 1971-10-19 3.81 6706
1973 1973-06-12 3.81 6706
1974 1974-04-03 4.60 1,0506
1975 1975-05-12 4.43 9706
1976 1976-05-06 3.77 6326
1977 1976-10-01 3.60 5726
1978 1978-05-15 5.10 1,4206
1979 1979-05-15 5.04 1,4806
1980 1980-06-07 4.20 8766
1981 1981-05-18 5.55 1,8906
1982 1982-06-10 5.68 2,0606
1983 1983-07-17 6.11 2,5206
1984 1984-06-04 5.35 1,7106
1985 1985-04-29 5.03 1,4706
1986 1986-05-13 5.09 1,4506
1987 1987-05-05 4.46 1,0106
1988 1988-08-29 3.07 3826
1989 1989-09-20 3.14 3796
1990 1990-05-09 3.09 3756
1991 1991-07-16 3.35 4676
1992 1992-06-04 3.05 3616
1993 1993-06-25 3.86 6836
1994 1994-05-27 5.15 1,5106
1995 1995-06-17   8476
1996 1996-02-20 4.79 1,2306
1997 1997-01-08 6.14 2,7206
1998 1998-05-15 4.73 1,2906
1999 1999-04-21 4.20 9206
2000 2000-05-07 3.47 5436
2001 2001-06-07 2.57 2526
2002 2002-05-31 3.91 7496
2003 2003-05-01 3.21 4456
2004 2004-05-27 3.19 4386
2005 2005-07-09 3.37 5046
2006 2006-03-03 5.42 1,9106
2007 2007-05-20 3.31 4826
2008 2008-06-18 2.69 2896
2009 2009-09-28 3.16 4286
2010 2009-10-01 3.00 3756
2011 2011-07-04 4.04 8746
2012 2012-05-28 3.69 6836
2013 2013-05-24 3.06 4146
2014 2014-04-28 3.07 4186
2015 2015-04-06 3.04 4186
2016 2016-05-24 2.94 3806
2017 2017-03-23 5.43 1,8806
2018 2018-04-08 4.58 1,1706
2019 2019-04-30 4.59 1,1806
2020 2020-05-31 3.88 7296
2021 2020-10-01 2.70 2876
?
  Peak Streamflow Qualification Codes.